Madison, SD

5:17 PM CDT on October 20, 2017 (GMT -0500)
Madison Municipal

Weather History for KMDS - December, 2011

Change the Weather History Date:

Friday, December 23, 2011

  Actual Average Record
Temperature  
Mean Temperature 27 °F -  
Max Temperature 37 °F 25 °F 37 °F (2011)
Min Temperature 17 °F 5 °F -16 °F (2013)
Degree Days  
Heating Degree Days 38    
Moisture  
Dew Point 17 °F    
Average Humidity 72    
Maximum Humidity 100    
Minimum Humidity 45    
Precipitation  
Precipitation 0.00 in - - ()
Sea Level Pressure  
Sea Level Pressure 30.10 in    
Wind  
Wind Speed 15 mph (West)    
Max Wind Speed 22 mph    
Max Gust Speed 28 mph    
Visibility 10 miles    
Events Snow    
Averages and records for this station are not official NWS values.
T = Trace of Precipitation, MM = Missing Value Source: NWS Daily Summary

Daily Weather History Graph

Daily Weather History Graph

Search for Another Location

Airport or City:

Trip Planner

Search our weather history database for the weather conditions in past years. The results will help you decide how hot, cold, wet, or windy it might be!

Date:

Astronomy

Dec. 23, 2011 Rise Set
Actual Time 8:00 AM CST 4:54 PM CST
Civil Twilight 7:27 AM CST 5:27 PM CST
Nautical Twilight 6:51 AM CST 6:03 PM CST
Astronomical Twilight 6:15 AM CST 6:38 PM CST
Moon 6:52 AM CST (12/23) 4:03 PM CST (12/23)
Length of Visible Light 9h 59m
Length of Day
8h 53m
Waning Crescent, 1% of the Moon is Illuminated
Dec 23
Waning Crescent
Dec 24
New
Jan 1
First Quarter
Jan 9
Full
Jan 16
Last Quarter

Hourly Weather History & Observations

Time (CST) Temp. Windchill Dew Point Humidity Pressure Visibility Wind Dir Wind Speed Gust Speed Precip Events Conditions
12:10 AM 17.6 °F 4.3 °F 17.6 °F 100% 30.25 in 10.0 mi WSW 12.7 mph - N/A   Clear
12:30 AM 17.6 °F 4.3 °F 17.6 °F 100% 30.24 in 10.0 mi WSW 12.7 mph - N/A   Clear
12:50 AM 17.6 °F 3.7 °F 17.6 °F 100% 30.24 in 10.0 mi WSW 13.8 mph 18.4 mph N/A   Clear
1:10 AM 17.6 °F 3.7 °F 17.6 °F 100% 30.23 in 10.0 mi WSW 13.8 mph 18.4 mph N/A   Clear
1:30 AM 19.4 °F 5.5 °F 15.8 °F 86% 30.22 in 10.0 mi WSW 15.0 mph - N/A   Clear
1:50 AM 17.6 °F 4.3 °F 15.8 °F 93% 30.21 in 10.0 mi SW 12.7 mph 20.7 mph N/A   Clear
2:10 AM 17.6 °F 2.2 °F 15.8 °F 93% 30.21 in 10.0 mi WSW 17.3 mph - N/A   Clear
2:30 AM 17.6 °F 3.2 °F 15.8 °F 93% 30.21 in 10.0 mi SW 15.0 mph 20.7 mph N/A   Clear
3:10 AM 19.4 °F 5.0 °F 14.0 °F 80% 30.18 in 10.0 mi WSW 16.1 mph 21.9 mph N/A   Clear
3:30 AM 19.4 °F 4.5 °F 14.0 °F 80% 30.17 in 10.0 mi WSW 17.3 mph 21.9 mph N/A   Clear
3:50 AM 17.6 °F 2.7 °F 14.0 °F 86% 30.16 in 10.0 mi SW 16.1 mph 21.9 mph N/A   Clear
4:10 AM 17.6 °F 1.7 °F 14.0 °F 86% 30.14 in 10.0 mi SW 18.4 mph 24.2 mph N/A   Clear
4:30 AM 17.6 °F 2.2 °F 14.0 °F 86% 30.13 in 10.0 mi SW 17.3 mph - N/A   Clear
4:50 AM 19.4 °F 4.5 °F 15.8 °F 86% 30.12 in 10.0 mi WSW 17.3 mph 23.0 mph N/A   Clear
5:10 AM 19.4 °F 4.1 °F 14.0 °F 80% 30.11 in 10.0 mi WSW 18.4 mph 26.5 mph N/A   Clear
5:30 AM 19.4 °F 3.2 °F 14.0 °F 80% 30.10 in 10.0 mi WSW 20.7 mph - N/A   Clear
5:50 AM 19.4 °F 4.1 °F 14.0 °F 80% 30.09 in 10.0 mi SW 18.4 mph 25.3 mph N/A   Partly Cloudy
6:10 AM 17.6 °F 1.3 °F 14.0 °F 86% 30.09 in 10.0 mi WSW 19.6 mph 26.5 mph N/A   Partly Cloudy
6:30 AM 17.6 °F 1.3 °F 14.0 °F 86% 30.08 in 10.0 mi WSW 19.6 mph 24.2 mph N/A   Mostly Cloudy
6:50 AM 17.6 °F 2.2 °F 14.0 °F 86% 30.08 in 10.0 mi WSW 17.3 mph 23.0 mph N/A   Overcast
7:10 AM 17.6 °F 1.7 °F 14.0 °F 86% 30.09 in 10.0 mi WSW 18.4 mph 24.2 mph N/A   Overcast
7:30 AM 19.4 °F 5.0 °F 15.8 °F 86% 30.09 in 10.0 mi WSW 16.1 mph 27.6 mph N/A   Overcast
7:50 AM 19.4 °F 4.1 °F 15.8 °F 86% 30.08 in 10.0 mi SW 18.4 mph - N/A Snow Light Snow
8:10 AM 19.4 °F 4.5 °F 15.8 °F 86% 30.07 in 10.0 mi WSW 17.3 mph 23.0 mph N/A   Overcast
8:30 AM 19.4 °F 4.5 °F 15.8 °F 86% 30.06 in 10.0 mi WSW 17.3 mph - N/A   Overcast
8:50 AM 19.4 °F 6.0 °F 15.8 °F 86% 30.07 in 10.0 mi West 13.8 mph 23.0 mph N/A   Mostly Cloudy
9:10 AM 21.2 °F 8.3 °F 15.8 °F 80% 30.06 in 10.0 mi WSW 13.8 mph 19.6 mph N/A   Overcast
9:30 AM 21.2 °F 7.3 °F 17.6 °F 86% 30.08 in 10.0 mi WSW 16.1 mph 23.0 mph N/A   Mostly Cloudy
9:50 AM 23.0 °F 10.1 °F 17.6 °F 80% 30.08 in 10.0 mi WSW 15.0 mph 21.9 mph N/A   Scattered Clouds
10:10 AM 24.8 °F 11.5 °F 17.6 °F 74% 30.07 in 10.0 mi WSW 17.3 mph 23.0 mph N/A   Mostly Cloudy
10:30 AM 24.8 °F 12.4 °F 17.6 °F 74% 30.07 in 10.0 mi WSW 15.0 mph 21.9 mph N/A   Mostly Cloudy
10:50 AM 26.6 °F 15.2 °F 17.6 °F 69% 30.06 in 10.0 mi WSW 13.8 mph - N/A   Overcast
11:30 AM 32.0 °F 22.5 °F 17.6 °F 55% 30.05 in 10.0 mi WSW 12.7 mph 18.4 mph N/A   Overcast
11:50 AM 32.0 °F 21.2 °F 17.6 °F 55% 30.04 in 10.0 mi WSW 16.1 mph 20.7 mph N/A   Mostly Cloudy
12:10 PM 32.0 °F 20.8 °F 17.6 °F 55% 30.04 in 10.0 mi West 17.3 mph 23.0 mph N/A   Mostly Cloudy
12:50 PM 35.6 °F 26.2 °F 17.6 °F 48% 30.03 in 10.0 mi West 15.0 mph 21.9 mph N/A   Overcast
1:10 PM 35.6 °F 26.6 °F 17.6 °F 48% 30.02 in 10.0 mi West 13.8 mph - N/A   Overcast
1:30 PM 37.4 °F 27.8 °F 17.6 °F 45% 30.01 in 10.0 mi WNW 17.3 mph 23.0 mph N/A   Partly Cloudy
1:50 PM 35.6 °F 25.9 °F 17.6 °F 48% 30.01 in 10.0 mi West 16.1 mph 24.2 mph N/A   Clear
2:10 PM 37.4 °F 27.2 °F 17.6 °F 45% 30.01 in 10.0 mi WNW 19.6 mph 25.3 mph N/A   Clear
2:30 PM 37.4 °F 26.6 °F 17.6 °F 45% 30.03 in 10.0 mi NW 21.9 mph 27.6 mph N/A   Clear
2:50 PM 37.4 °F 26.6 °F 17.6 °F 45% 30.04 in 10.0 mi NW 21.9 mph 27.6 mph N/A   Clear
3:10 PM 37.4 °F 27.5 °F 17.6 °F 45% 30.05 in 10.0 mi NW 18.4 mph 27.6 mph N/A   Clear
3:30 PM 37.4 °F 28.2 °F 17.6 °F 45% 30.05 in 10.0 mi NW 16.1 mph 20.7 mph N/A   Clear
3:50 PM 37.4 °F 28.5 °F 17.6 °F 45% 30.06 in 10.0 mi NW 15.0 mph 23.0 mph N/A   Clear
4:10 PM 35.6 °F 25.9 °F 17.6 °F 48% 30.07 in 10.0 mi NW 16.1 mph 21.9 mph N/A   Clear
4:30 PM 33.8 °F 25.8 °F 17.6 °F 52% 30.07 in 10.0 mi NW 10.4 mph - N/A   Clear
4:50 PM 32.0 °F 24.8 °F 17.6 °F 55% 30.08 in 10.0 mi WNW 8.1 mph - N/A   Clear
5:10 PM 32.0 °F 24.8 °F 17.6 °F 55% 30.09 in 10.0 mi WNW 8.1 mph - N/A   Clear
5:30 PM 30.2 °F 22.6 °F 17.6 °F 60% 30.09 in 10.0 mi WNW 8.1 mph - N/A   Clear
5:50 PM 28.4 °F 19.1 °F 17.6 °F 64% 30.10 in 10.0 mi WNW 10.4 mph - N/A   Clear
6:10 PM 28.4 °F 19.7 °F 17.6 °F 64% 30.10 in 10.0 mi WNW 9.2 mph - N/A   Clear
6:30 PM 28.4 °F 19.1 °F 17.6 °F 64% 30.11 in 10.0 mi WNW 10.4 mph - N/A   Clear
7:10 PM 28.4 °F 19.7 °F 17.6 °F 64% 30.12 in 10.0 mi WNW 9.2 mph - N/A   Clear
7:30 PM 28.4 °F 19.7 °F 17.6 °F 64% 30.12 in 10.0 mi WNW 9.2 mph - N/A   Clear
7:50 PM 24.8 °F 16.1 °F 17.6 °F 74% 30.12 in 10.0 mi WNW 8.1 mph - N/A   Clear
8:10 PM 26.6 °F 20.0 °F 17.6 °F 69% 30.12 in 10.0 mi WNW 5.8 mph - N/A   Clear
8:30 PM 26.6 °F 20.0 °F 17.6 °F 69% 30.12 in 10.0 mi WNW 5.8 mph - N/A   Clear
8:50 PM 26.6 °F 22.6 °F 17.6 °F 69% 30.11 in 10.0 mi West 3.5 mph - N/A   Clear
9:10 PM 23.0 °F 17.0 °F 17.6 °F 80% 30.13 in 10.0 mi West 4.6 mph - N/A   Clear
9:30 PM 23.0 °F 15.8 °F 19.4 °F 86% 30.14 in 10.0 mi WSW 5.8 mph - N/A   Clear
9:50 PM 24.8 °F 19.1 °F 17.6 °F 74% 30.13 in 10.0 mi West 4.6 mph - N/A   Clear
10:10 PM 21.2 °F 12.6 °F 17.6 °F 86% 30.13 in 10.0 mi West 6.9 mph - N/A   Clear
10:30 PM 24.8 °F 17.9 °F 19.4 °F 80% 30.12 in 10.0 mi West 5.8 mph - N/A   Clear
10:50 PM 21.2 °F 12.6 °F 17.6 °F 86% 30.13 in 10.0 mi WSW 6.9 mph - N/A   Clear
11:10 PM 23.0 °F 15.8 °F 19.4 °F 86% 30.13 in 10.0 mi WSW 5.8 mph - N/A   Clear
11:30 PM 21.2 °F 11.7 °F 17.6 °F 86% 30.13 in 10.0 mi SW 8.1 mph - N/A   Clear
11:50 PM 23.0 °F 13.1 °F 17.6 °F 80% 30.13 in 10.0 mi WSW 9.2 mph - N/A   Clear